TimeCDT,TemperatureF,Dew PointF,Humidity,Sea Level PressureIn,VisibilityMPH,Wind Direction,Wind SpeedMPH,Gust SpeedMPH,PrecipitationIn,Events,Conditions,WindDirDegrees,DateUTC
12:15 AM,68.4,65.5,90,30.17,3.0,East,9.2,-,0.02,,Overcast,100,2013-10-14 05:15:00
12:35 AM,68.4,65.7,91,30.16,2.5,East,8.1,-,0.06,,Overcast,90,2013-10-14 05:35:00
12:55 AM,68.0,65.3,91,30.16,2.5,East,5.8,-,0.17,,Overcast,90,2013-10-14 05:55:00
1:15 AM,68.0,65.3,91,30.15,2.0,ENE,6.9,-,0.07,,Overcast,70,2013-10-14 06:15:00
1:35 AM,68.0,65.3,91,30.15,3.0,East,8.1,-,0.16,,Overcast,90,2013-10-14 06:35:00
1:55 AM,68.0,65.5,92,30.14,3.0,East,6.9,-,0.25,,Overcast,80,2013-10-14 06:55:00
2:15 AM,68.0,65.5,92,30.14,3.0,East,8.1,-,0.04,,Overcast,80,2013-10-14 07:15:00
2:35 AM,68.0,65.3,91,30.12,2.5,ENE,8.1,-,0.23,,Overcast,70,2013-10-14 07:35:00
2:55 AM,68.0,65.5,92,30.12,5.0,East,13.8,19.6,0.28,,Overcast,90,2013-10-14 07:55:00
3:15 AM,68.0,65.5,92,30.12,4.0,East,9.2,-,0.08,,Overcast,100,2013-10-14 08:15:00
3:35 AM,68.0,65.5,92,30.11,4.0,East,9.2,-,0.15,,Overcast,100,2013-10-14 08:35:00
3:55 AM,68.0,65.5,92,30.12,2.5,ESE,5.8,-,0.29,,Overcast,110,2013-10-14 08:55:00
4:15 AM,68.0,65.5,92,30.10,1.2,East,8.1,-,0.22,,Overcast,90,2013-10-14 09:15:00
4:35 AM,68.0,65.5,92,30.10,3.0,East,5.8,-,0.34,,Overcast,90,2013-10-14 09:35:00
4:55 AM,68.0,65.7,92,30.10,10.0,ESE,3.5,-,0.35,,Overcast,110,2013-10-14 09:55:00
5:15 AM,68.0,65.7,92,30.10,5.0,SE,3.5,-,0.02,,Overcast,130,2013-10-14 10:15:00
5:35 AM,68.0,65.7,92,30.09,10.0,ESE,3.5,-,0.04,,Overcast,120,2013-10-14 10:35:00
5:55 AM,68.0,65.7,92,30.09,7.0,SSE,3.5,-,0.04,,Overcast,150,2013-10-14 10:55:00
6:15 AM,68.0,65.7,92,30.09,4.0,SE,4.6,-,0.03,,Overcast,140,2013-10-14 11:15:00
6:35 AM,68.4,66.2,93,30.09,3.0,SE,8.1,-,0.13,,Overcast,140,2013-10-14 11:35:00
6:55 AM,68.5,66.2,92,30.09,2.5,South,5.8,-,0.19,,Overcast,170,2013-10-14 11:55:00
7:15 AM,68.5,66.2,92,30.09,5.0,SSE,8.1,-,0.03,,Overcast,160,2013-10-14 12:15:00
7:35 AM,68.9,66.6,92,30.10,4.0,South,8.1,-,0.03,,Overcast,170,2013-10-14 12:35:00
7:55 AM,68.9,66.6,92,30.10,2.0,SSE,10.4,-,0.03,,Overcast,160,2013-10-14 12:55:00
8:15 AM,68.9,66.7,93,30.10,1.0,South,10.4,17.3,N/A,,Overcast,170,2013-10-14 13:15:00
8:35 AM,69.1,67.1,93,30.10,1.2,SSE,10.4,-,N/A,,Overcast,160,2013-10-14 13:35:00
8:55 AM,69.3,67.1,93,30.11,0.8,South,8.1,-,N/A,,Overcast,170,2013-10-14 13:55:00
9:15 AM,69.3,67.1,93,30.10,0.8,SSE,8.1,-,N/A,,Overcast,160,2013-10-14 14:15:00
9:35 AM,69.4,67.3,93,30.10,1.0,South,6.9,-,N/A,,Overcast,170,2013-10-14 14:35:00
9:55 AM,69.6,67.3,92,30.10,1.2,South,9.2,-,N/A,,Overcast,170,2013-10-14 14:55:00
10:15 AM,69.8,67.5,92,30.09,1.5,South,8.1,-,N/A,,Overcast,170,2013-10-14 15:15:00
10:35 AM,69.8,67.6,93,30.09,2.0,SSE,9.2,-,N/A,,Overcast,160,2013-10-14 15:35:00
10:55 AM,69.8,67.8,93,30.09,2.5,SSE,9.2,-,0.01,,Overcast,150,2013-10-14 15:55:00
11:15 AM,70.3,68.2,93,30.08,7.0,SSE,10.4,-,N/A,,Overcast,150,2013-10-14 16:15:00
11:35 AM,71.1,68.9,93,30.08,10.0,South,12.7,-,N/A,,Overcast,170,2013-10-14 16:35:00
11:55 AM,71.1,68.7,92,30.07,10.0,SSE,9.2,-,N/A,,Overcast,160,2013-10-14 16:55:00
12:15 PM,72.0,69.4,92,30.07,10.0,SSE,9.2,-,N/A,,Overcast,160,2013-10-14 17:15:00
12:35 PM,72.1,68.9,89,30.06,7.0,South,12.7,19.6,N/A,,Overcast,170,2013-10-14 17:35:00
12:55 PM,72.5,68.5,87,30.04,10.0,SSE,10.4,-,N/A,,Overcast,160,2013-10-14 17:55:00
1:15 PM,72.7,68.7,87,30.03,7.0,South,11.5,-,N/A,,Overcast,170,2013-10-14 18:15:00
1:35 PM,73.6,68.9,85,30.02,10.0,South,8.1,-,N/A,,Overcast,170,2013-10-14 18:35:00
1:55 PM,73.9,68.5,83,30.01,10.0,South,8.1,16.1,N/A,,Overcast,170,2013-10-14 18:55:00
2:15 PM,74.7,68.5,81,29.99,10.0,South,11.5,-,N/A,,Overcast,180,2013-10-14 19:15:00
2:35 PM,75.6,68.4,78,29.98,10.0,South,10.4,-,N/A,,Overcast,180,2013-10-14 19:35:00
2:55 PM,76.3,68.2,76,29.98,10.0,South,11.5,18.4,N/A,,Overcast,190,2013-10-14 19:55:00
3:15 PM,75.4,68.2,78,29.97,10.0,South,8.1,-,N/A,,Overcast,190,2013-10-14 20:15:00
3:35 PM,75.9,69.4,80,29.98,10.0,South,9.2,-,N/A,,Overcast,180,2013-10-14 20:35:00
3:55 PM,75.7,68.2,77,29.97,10.0,South,9.2,17.3,N/A,,Overcast,180,2013-10-14 20:55:00
4:15 PM,75.4,68.7,80,29.96,10.0,South,6.9,-,N/A,,Overcast,190,2013-10-14 21:15:00
4:35 PM,76.1,68.9,78,29.95,10.0,South,8.1,-,N/A,,Overcast,170,2013-10-14 21:35:00
4:55 PM,77.4,68.0,73,29.95,10.0,South,9.2,-,N/A,,Mostly Cloudy,190,2013-10-14 21:55:00
5:15 PM,78.8,68.5,71,29.95,10.0,South,9.2,-,N/A,,Scattered Clouds,180,2013-10-14 22:15:00
5:35 PM,78.1,68.5,72,29.94,10.0,South,10.4,-,N/A,,Clear,170,2013-10-14 22:35:00
5:55 PM,76.6,67.3,73,29.95,10.0,SSE,11.5,-,N/A,,Clear,160,2013-10-14 22:55:00
6:15 PM,76.8,67.5,73,29.95,10.0,South,10.4,-,N/A,,Scattered Clouds,170,2013-10-14 23:15:00
6:35 PM,76.3,67.3,74,29.95,10.0,South,8.1,-,N/A,,Scattered Clouds,170,2013-10-14 23:35:00
6:55 PM,75.7,67.5,75,29.97,10.0,South,4.6,-,N/A,,Mostly Cloudy,170,2013-10-14 23:55:00
7:15 PM,75.2,67.6,77,29.97,10.0,SSE,4.6,-,N/A,,Scattered Clouds,160,2013-10-15 00:15:00
7:35 PM,74.5,68.2,81,29.97,10.0,SE,4.6,-,N/A,,Clear,140,2013-10-15 00:35:00
7:55 PM,73.6,68.9,85,29.97,10.0,SSE,9.2,-,N/A,,Mostly Cloudy,160,2013-10-15 00:55:00
8:15 PM,73.0,68.9,87,29.97,10.0,SSE,9.2,-,N/A,,Mostly Cloudy,160,2013-10-15 01:15:00
8:35 PM,72.5,68.5,87,29.98,10.0,SSE,8.1,-,N/A,,Mostly Cloudy,160,2013-10-15 01:35:00
8:55 PM,72.1,68.5,88,29.98,10.0,SSE,8.1,-,N/A,,Mostly Cloudy,160,2013-10-15 01:55:00
9:15 PM,72.0,68.5,89,29.99,10.0,South,6.9,-,N/A,,Mostly Cloudy,180,2013-10-15 02:15:00
9:35 PM,71.8,68.4,89,29.99,10.0,South,8.1,-,N/A,,Mostly Cloudy,170,2013-10-15 02:35:00
9:55 PM,71.8,68.4,89,29.99,10.0,South,6.9,-,N/A,,Overcast,170,2013-10-15 02:55:00
10:15 PM,71.8,68.5,89,29.99,10.0,South,6.9,-,N/A,,Mostly Cloudy,170,2013-10-15 03:15:00
10:35 PM,71.8,68.5,89,29.99,10.0,South,8.1,-,N/A,,Scattered Clouds,170,2013-10-15 03:35:00
10:55 PM,72.0,68.9,90,29.99,10.0,South,10.4,-,N/A,,Clear,170,2013-10-15 03:55:00
11:15 PM,72.1,68.9,89,29.99,10.0,South,10.4,-,N/A,,Clear,170,2013-10-15 04:15:00
11:35 PM,72.3,68.7,88,29.99,10.0,South,8.1,-,N/A,,Scattered Clouds,180,2013-10-15 04:35:00
11:55 PM,72.1,68.5,88,29.99,10.0,South,6.9,-,N/A,,Mostly Cloudy,180,2013-10-15 04:55:00